This is the latest recevied weather packets stored in our database for station/object KB2AHZ. If no packets are shown the sender has not sent any weather packets the latest 10 day(s).
| Time | Temp. | Humidity | Pressure | Rain* | Wind** | Luminosity | Snow |
|---|---|---|---|---|---|---|---|
| 1777476268 | 18.89° C | 85% | 1013.3 hPa | 0 mm | - | 253 W/m² | - |
| 1777475963 | 18.89° C | 85% | 1013.5 hPa | 0 mm | - | 289 W/m² | - |
| 1777475660 | 18.89° C | 87% | 1013.3 hPa | 0 mm | - | 252 W/m² | - |
| 1777475356 | 18.89° C | 88% | 1013.3 hPa | 0 mm | - | 327 W/m² | - |
| 1777475051 | 18.89° C | 87% | 1013.1 hPa | 0 mm | - | 270 W/m² | - |
| 1777474748 | 18.33° C | 87% | 1013.5 hPa | 0 mm | - | 206 W/m² | - |
| 1777474444 | 18.33° C | 87% | 1013.7 hPa | 0 mm | - | 150 W/m² | - |
| 1777474141 | 18.33° C | 87% | 1013.7 hPa | 0 mm | - | 135 W/m² | - |
| 1777473839 | 18.33° C | 87% | 1013.9 hPa | 0 mm | - | 160 W/m² | - |
| 1777473535 | 18.33° C | 87% | 1013.8 hPa | 0 mm | - | 174 W/m² | - |
| 1777473231 | 18.33° C | 87% | 1013.9 hPa | 0 mm | - | 221 W/m² | - |
| 1777472928 | 18.33° C | 87% | 1014 hPa | 0 mm | - | 230 W/m² | - |
| 1777472624 | 18.33° C | 87% | 1014.1 hPa | 0 mm | - | 217 W/m² | - |
| 1777472321 | 18.33° C | 87% | 1014.2 hPa | 0 mm | - | 186 W/m² | - |
| 1777472018 | 18.33° C | 89% | 1014.1 hPa | 0 mm | - | 200 W/m² | - |
| 1777471714 | 18.33° C | 88% | 1013.8 hPa | 0 mm | - | 220 W/m² | - |
| 1777471411 | 18.33° C | 88% | 1014 hPa | 0 mm | - | 250 W/m² | - |
| 1777471107 | 17.78° C | 88% | 1014.3 hPa | 0 mm | - | 215 W/m² | - |
| 1777470804 | 17.78° C | 89% | 1014.2 hPa | 0 mm | - | 171 W/m² | - |
| 1777470501 | 17.78° C | 89% | 1014.2 hPa | 0 mm | - | 137 W/m² | - |
| 1777470197 | 17.78° C | 89% | 1014.1 hPa | 0 mm | - | 147 W/m² | - |
| 1777469894 | 17.78° C | 89% | 1014.6 hPa | 0 mm | - | 165 W/m² | - |
| 1777469589 | 17.78° C | 89% | 1014.3 hPa | 0 mm | - | 192 W/m² | - |
| 1777469283 | 17.78° C | 89% | 1014.8 hPa | 0 mm | - | 186 W/m² | - |
| 1777468979 | 17.78° C | 89% | 1014.8 hPa | 0 mm | - | 197 W/m² | - |
* Rain latest hour (hover to see other rain measurements)
** Current wind speed in m/s (hover to see current wind gust speed)